Flag for Japan Weather past 2 weeks in Hiroshima, Japan

Now
49 °F

Mostly cloudy.


Feels Like: 47 °F
Forecast: 33 / 54 °F
Wind: 5 mph from Southeast

Location: Iwakuni Marine Corps Air Station

Current Time: Mar 6, 2015 at 2:01:39 PM

Latest Report: Mar 6, 2015 at 12:55 PM


Visibility: N/A

Pressure: 30.20 "Hg

Humidity: 46%

Dew point: 29 °F

Location of HiroshimaLocation

Historic Weather in Hiroshima — Graph

°F

Hiroshima temperature yesterday

Maximum temperature yesterday: 53 °F (at 2:55 PM)
Minimum temperature yesterday: 35 °F (at 5:55 AM)
Average temperature yesterday: 44 °F

Past Weeks' High & Low Weather Summary

 TemperatureHumidityPressure
High56 °F (Feb 25, 1:55 PM)97% (Feb 22, 4:55 AM)30.37 "Hg (Feb 22, 4:55 AM)
Low30 °F (Feb 21, 7:55 AM)33% (Mar 4, 4:55 PM)29.78 "Hg (Mar 3, 8:55 PM)
Average46 °F70%30.10 "Hg
* Reported Feb 19 12:55 PM — Mar 6 12:55 PM, Hiroshima, Weather by CustomWeather, © 2015

Note: Actual official high and low records may vary slightly from our data, if they occured in-between our weather recording intervals... More about our weather records

Advertising

Hiroshima weather history for previous 24 hours

 ConditionsComfort  
Time TempWeatherWind HumidityBarometerVisibility
12:55 PM
Fri, Mar 6
49 °FMostly cloudy.5 mph46%30.20 "HgN/A
11:55 AM50 °FMostly cloudy.No wind46%30.22 "HgN/A
10:55 AM47 °FPartly sunny.7 mph50%30.24 "HgN/A
9:55 AM44 °FBroken clouds.12 mph51%30.24 "HgN/A
8:55 AM43 °FPartly sunny.14 mph56%30.26 "HgN/A
7:55 AM42 °FScattered clouds.16 mph55%30.24 "HgN/A
6:55 AM41 °FScattered clouds.14 mph60%30.23 "HgN/A
5:55 AM41 °FPassing clouds.9 mph62%30.24 "HgN/A
4:55 AM42 °FPassing clouds.16 mph57%30.23 "HgN/A
3:55 AM42 °FPassing clouds.15 mph60%30.22 "HgN/A
2:55 AM43 °FPassing clouds.15 mph58%30.23 "HgN/A
1:55 AM43 °FPassing clouds.15 mph56%30.23 "HgN/A
12:55 AM44 °FPassing clouds.16 mph53%30.23 "HgN/A
11:55 PM
Thu, Mar 5
44 °FPassing clouds.16 mph58%30.24 "HgN/A
9:55 PM45 °FPartly cloudy.17 mph60%30.24 "HgN/A
8:55 PM46 °FPartly cloudy.16 mph58%30.25 "HgN/A
7:55 PM46 °FPartly cloudy.17 mph54%30.21 "HgN/A
6:55 PM47 °FPassing clouds.16 mph50%30.18 "HgN/A
5:55 PM50 °FPartly sunny.18 mph46%30.18 "HgN/A
4:55 PM50 °FPartly sunny.7 mph46%30.17 "HgN/A
3:55 PM52 °FPartly sunny.6 mph38%30.17 "HgN/A
2:55 PM53 °FBroken clouds.No wind38%30.17 "HgN/A
Weather by CustomWeather, © 2015

See weather overviewHow to use our weather pages